[[{"header":{"parameterUnit":"m.s-1","parameterCategory":2,"la1":30.2991,"la2":30.254,"lo1":-89.0895,"lo2":-89.0444,"dy":0.0017,"dx":0.0017,"nx":28,"ny":28,"refTime":"2024-02-09T03:00:00:Z","depth":"0","parameterNumber":2,"parameterNumberName":"U-component_of_CURRENTS"},"data":[0,0,0,0,0,0,0,0,0,0,0,0,0,0,0,0,0,0,0,0,0,0,0,0,0,0,0,0,0,0,0,0,0,0,0,0,0,0,0,0,0,0,0,0,0,0,0,0,0,0,0,0,0,0,0,0,0,0,0.3328,0.3328,0,0.3333,0.3333,0.3332,0.3304,0.3303,0.3303,0.3302,0.326,0.3259,0.3258,0,0,0,0,0,0,0,0,0,0,0,0,0,0.3308,0.3308,0.3328,0.3328,0.3329,0.3333,0.3333,0.3332,0.3304,0.3303,0.3302,0.3302,0.326,0.3259,0.3258,0,0,0,0,0,0,0,0,0,0,0,0,0,0.3312,0.3308,0.3328,0.3317,0.3316,0.3333,0.3333,0.3332,0.3304,0.3303,0.3302,0.3301,0.326,0.3259,0.3258,0.3269,0,0,0.3255,0.3255,0,0,0,0,0,0,0,0,0.3312,0.3313,0.3318,0.3318,0.3317,0.3319,0.331,0.331,0.3304,0.3306,0.3302,0.3301,0.3278,0.3275,0.3275,0.3267,0.3265,0.3255,0.3255,0.3254,0.3254,0,0,0,0,0,0,0,0.3312,0.3312,0.3327,0.3319,0.3318,0.3317,0.3316,0.331,0.3293,0.3305,0.3304,0.3309,0.3276,0.3276,0.3273,0.3265,0.3255,0.3255,0.3254,0.3254,0.3291,0.3292,0,0,0,0,0,0,0.3317,0.3312,0.3327,0.3327,0.3316,0.3318,0.3317,0.3317,0.3294,0.3291,0.331,0.3308,0.3278,0.3274,0.3272,0.3303,0.3254,0.3253,0.3253,0.3289,0.3291,0.3293,0,0,0,0,0,0,0.3317,0.3318,0.3327,0.3322,0.3324,0.3319,0.332,0.3318,0.3321,0.3299,0.3294,0.3317,0.3277,0.3273,0.3279,0.33,0.3253,0.3252,0.3287,0.329,0.3292,0.3352,0,0,0,0,0,0,0.3316,0.3318,0.3321,0.3323,0.3324,0.3345,0.3321,0.3318,0.3327,0.3324,0.3303,0.3298,0.3276,0.328,0.3278,0.3298,0.3252,0.3285,0.3288,0.3291,0.3348,0.3356,0.3363,0,0,0,0,0,0.3315,0.3321,0.3321,0.3323,0.3328,0.3346,0.3347,0.3339,0.3328,0.3337,0.3325,0.3299,0.3297,0.3281,0.3278,0.3298,0.3284,0.3287,0.3291,0.3345,0.3354,0.3363,0,0,0,0,0,0,0.331,0.3319,0.3319,0.3326,0.3341,0.3342,0.335,0.3348,0.3346,0.3343,0.3316,0.3311,0.3327,0.3308,0.3291,0.3319,0.3287,0.329,0.3329,0.3338,0.3346,0.3349,0.3251,0,0,0,0,0,0.3313,0.332,0.3333,0.334,0.335,0.3353,0.336,0.336,0.336,0.3358,0.3344,0.3335,0.334,0.3335,0.3333,0.3344,0.3354,0.3357,0.3365,0.3371,0.3374,0.3424,0.3437,0.3304,0.3304,0.3304,0,0,0.3313,0.332,0.3323,0.3341,0.3349,0.3359,0.3354,0.3372,0.338,0.3354,0.3358,0.3363,0.3351,0.3368,0.3373,0.3351,0.3416,0.3375,0.3381,0.338,0.3429,0.3442,0.3454,0.3306,0.3306,0.3305,0,0,0.3312,0.3325,0.3328,0.3344,0.3366,0.3373,0.3382,0.3394,0.34,0.3416,0.3405,0.3424,0.3417,0.342,0.3418,0.3467,0.3459,0.3468,0.35,0.355,0.3561,0.3571,0.3606,0.3619,0.3465,0.3465,0.3465,0,0.331,0.3319,0.3334,0.3344,0.3365,0.3379,0.3397,0.3403,0.3415,0.3439,0.3423,0.346,0.3443,0.3479,0.349,0.3483,0.3508,0.3465,0.356,0.357,0.3579,0.3612,0.3625,0.3468,0.3468,0.3468,0.3467,0,0.3307,0.3322,0.3331,0.3346,0.3371,0.3395,0.3416,0.3442,0.3457,0.347,0.3523,0.352,0.3544,0.3545,0.3524,0.3586,0.3583,0.3569,0.3536,0.3596,0.3627,0.364,0.3473,0.3472,0.3471,0.347,0,0,0.3275,0.3321,0.3321,0.3333,0.3384,0.3391,0.344,0.3487,0.3514,0.3542,0.3591,0.3608,0.3626,0.3627,0.3623,0.3651,0.3729,0.3636,0.3637,0.3669,0.3841,0.3838,0.3851,0.374,0.3742,0.3744,0.3839,0,0.327,0.3283,0.3324,0.3343,0.3356,0.3418,0.3452,0.3498,0.3546,0.359,0.3632,0.3661,0.3651,0.3667,0.3706,0.3726,0.3765,0.3704,0.3779,0.3781,0.3771,0.3867,0.3762,0.3838,0.3851,0.3853,0.3855,0,0.3245,0.3262,0.3287,0.3344,0.3357,0.3375,0.3459,0.3495,0.3583,0.3625,0.3701,0.3729,0.3793,0.3761,0.3859,0.3827,0.3841,0.385,0.3854,0.3837,0.3803,0.378,0.386,0.3758,0.3874,0.3873,0.3871,0,0.3183,0.3232,0.3253,0.3271,0.3336,0.3374,0.3414,0.3505,0.3559,0.365,0.3714,0.3792,0.3847,0.3893,0.394,0.3905,0.404,0.3992,0.4007,0.4006,0.3923,0.3911,0.3909,0.406,0.406,0.406,0.406,0,0.3154,0.3159,0.3218,0.322,0.3252,0.3318,0.3375,0.3439,0.3549,0.3617,0.372,0.3801,0.3886,0.3979,0.3986,0.4063,0.4093,0.404,0.4045,0.3942,0.3931,0.3841,0.3776,0.4063,0.4063,0.4062,0.4061,0,0.3075,0.3118,0.3132,0.3198,0.3221,0.3235,0.3346,0.3384,0.3509,0.3615,0.3654,0.3835,0.3964,0.4052,0.4135,0.4137,0.4075,0.4191,0.4063,0.4052,0.3945,0.3888,0.3755,0.3643,0.4218,0.4219,0.422,0,0.3034,0.3036,0.3092,0.3102,0.3133,0.3177,0.3213,0.3338,0.3405,0.3629,0.3677,0.3867,0.3982,0.4151,0.4195,0.4255,0.4099,0.4167,0.4074,0.3953,0.3894,0.3715,0.3616,0.3987,0.3985,0.3984,0.3983,0,0.2963,0.2985,0.2996,0.3022,0.3049,0.3083,0.3157,0.3213,0.3374,0.3492,0.3656,0.3772,0.3999,0.4051,0.4177,0.4186,0.3973,0.4146,0.4054,0.3753,0.3523,0.3413,0.3901,0.3973,0.3974,0.3975,0.3976,0.3976,0.2902,0.2894,0.2915,0.2927,0.2952,0.2974,0.2968,0.308,0.3178,0.3331,0.3535,0.367,0.3878,0.406,0.4039,0.3983,0.392,0.3869,0.3825,0.3666,0.3505,0.3978,0.4036,0.4037,0.4038,0.4039,0.404,0,0.2813,0.2813,0.2822,0.2815,0.2787,0.2848,0.2905,0.2889,0.2949,0.3158,0.3296,0.3542,0.3653,0.3769,0.3847,0.3697,0.3493,0.3575,0.3288,0.3217,0.3686,0.3626,0.3556,0.3556,0.3556,0.3556,0.3556,0.3556,0.2766,0.2729,0.2729,0.2646,0.264,0.2569,0.257,0.2589,0.2693,0.2834,0.298,0.3174,0.3478,0.3654,0.3577,0.3467,0.3145,0.3011,0.296,0.3299,0.3321,0.3342,0.3271,0.3128,0.3127,0.2371,0.2366,0.2362]},{"header":{"parameterUnit":"m.s-1","parameterCategory":2,"la1":30.2991,"la2":30.254,"lo1":-89.0895,"lo2":-89.0444,"dy":0.0017,"dx":0.0017,"nx":28,"ny":28,"refTime":"2024-02-09T03:00:00:Z","depth":"0","parameterNumber":3,"parameterNumberName":"V-component_of_CURRENTS"},"data":[0,0,0,0,0,0,0,0,0,0,0,0,0,0,0,0,0,0,0,0,0,0,0,0,0,0,0,0,0,0,0,0,0,0,0,0,0,0,0,0,0,0,0,0,0,0,0,0,0,0,0,0,0,0,0,0,0,0,0.0213,0.0212,0,0.0138,0.0137,0.0136,0.0082,0.0082,0.0082,0.0081,-0.0019,-0.0021,-0.0023,0,0,0,0,0,0,0,0,0,0,0,0,0,0.0255,0.0255,0.0213,0.0212,0.0211,0.0139,0.0137,0.0136,0.0082,0.0082,0.0082,0.0081,-0.0018,-0.0021,-0.0024,0,0,0,0,0,0,0,0,0,0,0,0,0,0.0213,0.0255,0.0213,0.0177,0.0173,0.0139,0.0137,0.0136,0.0082,0.0082,0.0082,0.0081,-0.0017,-0.002,-0.0024,-0.0037,0,0,-0.0035,-0.0036,0,0,0,0,0,0,0,0,0.0216,0.0212,0.0183,0.0179,0.0175,0.0121,0.0116,0.0077,0.0083,0.0115,0.0081,0.0081,0.0027,0.002,0.0005,-0.0041,-0.0046,-0.0035,-0.0037,-0.0039,-0.004,0,0,0,0,0,0,0,0.0219,0.0214,0.0182,0.0182,0.0177,0.0146,0.014,0.0108,0.0073,0.0112,0.0109,0.0103,0.0024,0.0008,0.0002,-0.0047,-0.0035,-0.0038,-0.004,-0.0042,-0.0109,-0.0109,0,0,0,0,0,0,0.0235,0.0217,0.0184,0.018,0.0196,0.0146,0.0139,0.0137,0.0074,0.0064,0.0103,0.0101,0.0015,0.0006,-0.0002,-0.0004,-0.0039,-0.0042,-0.0044,-0.0109,-0.0109,-0.0109,0,0,0,0,0,0,0.0236,0.0232,0.0187,0.0198,0.019,0.0147,0.0144,0.0136,0.0123,0.0067,0.0057,0.01,0.0014,0.0003,-0.0022,-0.0009,-0.0044,-0.0047,-0.011,-0.0109,-0.0109,-0.002,0,0,0,0,0,0,0.0237,0.0233,0.0237,0.0199,0.019,0.0177,0.0145,0.0135,0.0121,0.0117,0.0061,0.0051,0.0013,-0.0017,-0.0026,-0.0015,-0.005,-0.011,-0.011,-0.0109,-0.0024,-0.0017,-0.0011,0,0,0,0,0,0.0239,0.0252,0.0238,0.0234,0.0197,0.0178,0.0171,0.0136,0.0121,0.0122,0.0085,0.0053,-0.0019,-0.0019,-0.003,-0.002,-0.0111,-0.011,-0.0109,-0.0026,-0.0018,-0.0011,0,0,0,0,0,0,0.0272,0.0247,0.023,0.0234,0.0211,0.017,0.0168,0.0144,0.0115,0.0112,0.0058,0.0046,0.0026,-0.0009,-0.0007,-0.0038,-0.0071,-0.0072,-0.0004,0.0003,0.0009,0.0036,-0.0053,0,0,0,0,0,0.0282,0.0285,0.0253,0.0256,0.0249,0.021,0.0198,0.0177,0.0146,0.0132,0.0093,0.0053,0.002,0.0004,-0.0033,-0.0046,-0.0082,-0.0048,-0.0042,-0.0036,-0.0022,-0.0067,-0.0063,-0.0106,-0.0106,-0.0106,0,0,0.0294,0.0282,0.0282,0.0263,0.0242,0.0246,0.0201,0.0193,0.0197,0.0127,0.0119,0.0073,0.002,0.0004,-0.0008,-0.0022,-0.0043,-0.0035,-0.0029,-0.0019,-0.0066,-0.0061,-0.0058,-0.0105,-0.0106,-0.0106,0,0,0.0328,0.0312,0.0328,0.0317,0.0297,0.0276,0.0279,0.0244,0.0229,0.0212,0.0165,0.0131,0.0079,0.0048,0.0025,0.0045,-0.001,0.0029,0.0086,0.0043,0.0046,0.0049,0.001,0.0009,0.0035,0.0035,0.0035,0,0.0344,0.0361,0.0329,0.0344,0.0345,0.0297,0.0319,0.0298,0.0259,0.0254,0.0222,0.0152,0.0103,0.0089,0.0091,0.0061,0.0028,0.0064,0.0053,0.0054,0.0055,0.0015,0.0012,0.0039,0.0039,0.0038,0.0038,0,0.0391,0.0404,0.0415,0.042,0.0416,0.0426,0.04,0.0396,0.0368,0.0338,0.0313,0.0243,0.0204,0.0179,0.0139,0.0128,0.0099,0.0065,0.0038,0.0065,0.0021,0.0016,0.0046,0.0044,0.0043,0.0042,0,0,0.0431,0.0447,0.0451,0.0471,0.046,0.0466,0.048,0.0477,0.0493,0.0436,0.0446,0.0372,0.0327,0.0298,0.0241,0.0199,0.017,0.0143,0.0139,0.0115,0.0077,0.0071,0.0064,0.0133,0.0132,0.0132,0.0044,0,0.048,0.0533,0.0522,0.0571,0.06,0.0572,0.0594,0.0583,0.0555,0.0551,0.0476,0.0451,0.0375,0.0356,0.0306,0.0206,0.0162,0.0197,0.0046,0.0042,0.004,0.006,0.0112,0.0038,0.0039,0.0038,0.0037,0,0.0535,0.0566,0.0626,0.0664,0.0674,0.0695,0.0726,0.0735,0.0712,0.0691,0.065,0.058,0.052,0.0445,0.03,0.0326,0.0214,0.0128,0.0122,0.0085,0.0027,0.0009,0.0029,-0.016,0.003,0.003,0.0031,0,0.0595,0.064,0.0695,0.0706,0.0738,0.0766,0.0785,0.0781,0.0809,0.0778,0.0791,0.069,0.0657,0.0507,0.0331,0.031,0.0169,0.0112,0.0001,-0.0001,-0.0002,-0.0003,-0.0171,0.0007,0.0007,0.0007,0.0007,0,0.0656,0.0701,0.0731,0.0764,0.0843,0.0835,0.0909,0.0912,0.0928,0.098,0.087,0.0889,0.067,0.056,0.0377,0.0193,0.0201,0.0022,-0.002,0.003,0.0033,-0.0168,-0.0274,0.0004,0.0005,0.0005,0.0006,0,0.0711,0.0728,0.0799,0.085,0.0876,0.0931,0.1008,0.1056,0.1061,0.1129,0.1126,0.104,0.0902,0.0679,0.0441,0.0272,-0.0021,0.0005,0.0084,0.0054,-0.0233,-0.0334,-0.0535,-0.0615,-0.0137,-0.0137,-0.0138,0,0.0742,0.0786,0.087,0.0921,0.0948,0.103,0.1094,0.1127,0.119,0.1234,0.1281,0.1171,0.1134,0.0792,0.0466,0.0157,-0.0033,-0.0016,-0.0054,-0.0232,-0.0376,-0.0451,-0.0509,-0.0027,-0.0027,-0.0026,-0.0026,0,0.0804,0.0833,0.089,0.1004,0.108,0.1177,0.1275,0.1352,0.1404,0.1471,0.1538,0.1511,0.1207,0.0919,0.0494,0.0277,-0.0127,-0.0019,-0.0226,-0.0315,-0.0384,-0.0484,0.0008,-0.0023,-0.0023,-0.0023,-0.0023,-0.0024,0.0848,0.0902,0.0983,0.1089,0.1186,0.1315,0.1413,0.1526,0.1657,0.1784,0.1746,0.1767,0.135,0.0786,0.045,-0.011,-0.0137,-0.0282,-0.0393,-0.0455,-0.0521,-0.0015,-0.0079,-0.008,-0.008,-0.0081,-0.0081,0,0.09,0.0963,0.1063,0.1193,0.1307,0.1353,0.1526,0.1635,0.1811,0.1945,0.2019,0.1862,0.1333,0.0785,0.0019,-0.0404,-0.0548,-0.0633,-0.0735,-0.0781,-0.0347,-0.033,-0.0422,-0.0422,-0.0421,-0.0421,-0.0421,-0.0421,0.0928,0.1027,0.108,0.1271,0.1367,0.1532,0.1639,0.1812,0.1955,0.2138,0.2193,0.2202,0.1796,0.0389,-0.0578,-0.0792,-0.1078,-0.1129,-0.131,-0.1025,-0.1001,-0.0978,-0.0988,-0.1217,-0.1218,-0.1663,-0.1667,-0.1671]}],[{"header":{"parameterUnit":"m.s-1","parameterCategory":2,"la1":30.2991,"la2":30.254,"lo1":-89.0895,"lo2":-89.0444,"dy":0.0017,"dx":0.0017,"nx":28,"ny":28,"refTime":"2024-02-09T03:00:00:Z","depth":"2","parameterNumber":2,"parameterNumberName":"U-component_of_CURRENTS"},"data":[0,0,0,0,0,0,0,0,0,0,0,0,0,0,0,0,0,0,0,0,0,0,0,0,0,0,0,0,0,0,0,0,0,0,0,0,0,0,0,0,0,0,0,0,0,0,0,0,0,0,0,0,0,0,0,0,0,0,0.2951,0.2951,0,0.2973,0.2973,0.2973,0.2965,0.2964,0.2964,0.2964,0.2956,0.2956,0.2956,0,0,0,0,0,0,0,0,0,0,0,0,0,0.2903,0.2903,0.2951,0.2951,0.2952,0.2973,0.2973,0.2973,0.2965,0.2964,0.2964,0.2964,0.2956,0.2956,0.2956,0,0,0,0,0,0,0,0,0,0,0,0,0,0.2922,0.2904,0.2951,0.2952,0.2952,0.2973,0.2973,0.2973,0.2965,0.2964,0.2964,0.2963,0.2956,0.2956,0.2956,0.2966,0,0,0.2956,0.2956,0,0,0,0,0,0,0,0,0.2921,0.2923,0.2951,0.2952,0.2952,0.2967,0.2953,0.297,0.2965,0.2958,0.2964,0.2963,0.2959,0.2959,0.2961,0.2965,0.2965,0.2956,0.2956,0.2956,0.2956,0,0,0,0,0,0,0,0.292,0.2923,0.2957,0.2952,0.2952,0.2952,0.2954,0.2956,0.2958,0.2958,0.2958,0.2964,0.2958,0.2961,0.2961,0.2965,0.2956,0.2956,0.2956,0.2956,0.3018,0.302,0,0,0,0,0,0,0.2922,0.2921,0.2957,0.2958,0.2938,0.2953,0.2955,0.2961,0.2959,0.2959,0.2965,0.2964,0.2961,0.2961,0.296,0.3006,0.2956,0.2956,0.2956,0.3017,0.3019,0.302,0,0,0,0,0,0,0.2921,0.2925,0.2956,0.2942,0.2946,0.2955,0.2961,0.2962,0.2975,0.2965,0.2963,0.2979,0.2961,0.296,0.2979,0.3004,0.2956,0.2957,0.3015,0.3017,0.302,0.3076,0,0,0,0,0,0,0.2919,0.2924,0.2932,0.2942,0.2947,0.2979,0.2962,0.2963,0.298,0.2979,0.2976,0.2974,0.296,0.2979,0.2979,0.3004,0.2957,0.3013,0.3016,0.3019,0.3072,0.308,0.3086,0,0,0,0,0,0.2917,0.2928,0.2932,0.2937,0.2957,0.298,0.2983,0.2985,0.2981,0.2994,0.2994,0.2975,0.2998,0.298,0.298,0.3005,0.3011,0.3015,0.3019,0.3068,0.3078,0.3086,0,0,0,0,0,0,0.2909,0.2929,0.2933,0.2949,0.297,0.298,0.2993,0.2996,0.3006,0.3008,0.2992,0.2992,0.3021,0.3008,0.2989,0.3034,0.3003,0.3006,0.3041,0.305,0.3057,0.306,0.2957,0,0,0,0,0,0.2913,0.2928,0.2948,0.2963,0.2975,0.2988,0.2999,0.3005,0.3015,0.3019,0.3018,0.3021,0.3035,0.3037,0.3046,0.3065,0.3072,0.3084,0.3091,0.3097,0.3101,0.3146,0.3158,0.3032,0.3032,0.3032,0,0,0.2913,0.2928,0.2935,0.2963,0.2978,0.2995,0.2993,0.3019,0.3034,0.3017,0.3039,0.305,0.3049,0.3076,0.3087,0.3066,0.3138,0.3101,0.3107,0.3108,0.3151,0.3163,0.3174,0.3034,0.3034,0.3034,0,0,0.2918,0.2938,0.295,0.297,0.3002,0.3012,0.3024,0.3046,0.306,0.3087,0.3085,0.3112,0.3122,0.3131,0.3135,0.3188,0.3181,0.3194,0.3225,0.3269,0.328,0.3289,0.3318,0.3329,0.319,0.319,0.319,0,0.2916,0.2937,0.2959,0.2976,0.3001,0.3021,0.3045,0.3059,0.3084,0.3112,0.3101,0.3155,0.3148,0.3192,0.3207,0.3204,0.3225,0.3189,0.3279,0.3288,0.3297,0.3324,0.3336,0.3193,0.3193,0.3193,0.3192,0,0.2926,0.2949,0.2964,0.2992,0.302,0.305,0.3078,0.3109,0.3132,0.315,0.3212,0.3218,0.3251,0.3256,0.3243,0.3307,0.3302,0.3289,0.3255,0.3313,0.3337,0.3349,0.3198,0.3197,0.3196,0.3195,0,0,0.2901,0.296,0.2962,0.298,0.3039,0.3051,0.3106,0.316,0.3192,0.3229,0.3281,0.3312,0.3332,0.3339,0.3339,0.3366,0.3438,0.3354,0.3354,0.3379,0.3537,0.3507,0.3516,0.3448,0.345,0.3452,0.3531,0,0.2905,0.2934,0.2977,0.3008,0.3029,0.3089,0.3129,0.318,0.3232,0.3282,0.3324,0.3364,0.3358,0.3379,0.3415,0.3437,0.3471,0.3418,0.348,0.3481,0.3445,0.3529,0.3253,0.3299,0.3542,0.3544,0.3545,0,0.2894,0.2919,0.2957,0.3019,0.3035,0.306,0.3147,0.3189,0.3279,0.3324,0.3399,0.343,0.3495,0.3467,0.3557,0.3529,0.3542,0.3549,0.3552,0.3511,0.3472,0.328,0.331,0.3564,0.3563,0.3561,0.356,0,0.2841,0.2901,0.2932,0.2953,0.3025,0.3065,0.311,0.3203,0.3261,0.3356,0.3418,0.3495,0.3548,0.359,0.3631,0.3602,0.3718,0.3676,0.3662,0.3659,0.3429,0.3402,0.3737,0.3737,0.3737,0.3736,0.3736,0,0.2822,0.2837,0.2904,0.2912,0.2953,0.3021,0.3087,0.3152,0.3264,0.3332,0.3431,0.3506,0.3586,0.3666,0.3672,0.3723,0.3764,0.369,0.3689,0.3441,0.3417,0.3642,0.363,0.3739,0.3739,0.3738,0.3738,0,0.2753,0.2802,0.2828,0.2902,0.2928,0.2951,0.3069,0.3111,0.3237,0.334,0.3379,0.3542,0.3649,0.3724,0.3796,0.3784,0.3814,0.3813,0.3518,0.3482,0.3708,0.3698,0.3803,0.3803,0.3803,0.3802,0.3802,0,0.2721,0.2731,0.2799,0.2814,0.285,0.2906,0.2947,0.3075,0.3142,0.3351,0.3394,0.3559,0.3642,0.3773,0.3777,0.3809,0.3844,0.3559,0.3451,0.3732,0.3721,0.3711,0.3702,0.3161,0.3156,0.3152,0.3148,0,0.2659,0.2687,0.2707,0.2744,0.2778,0.2821,0.29,0.2953,0.3112,0.3215,0.3351,0.3439,0.3599,0.3527,0.3606,0.3576,0.3533,0.3474,0.3853,0.3202,0.3138,0.3124,0.3133,0.3109,0.3113,0.3116,0.3118,0.312,0.2607,0.2604,0.2637,0.2658,0.2692,0.2715,0.2715,0.2819,0.2906,0.3024,0.3195,0.3234,0.3309,0.3297,0.3218,0.3165,0.34,0.3228,0.3237,0.3251,0.3177,0.3118,0.3071,0.3074,0.3078,0.308,0.3083,0,0.2527,0.2533,0.255,0.2556,0.2536,0.2603,0.2657,0.2635,0.2674,0.2817,0.2907,0.2751,0.2744,0.28,0.2677,0.271,0.2629,0.2582,0.2435,0.248,0.2518,0.24,0.2091,0.2087,0.2084,0.208,0,0,0.2484,0.2455,0.2458,0.2391,0.2397,0.2337,0.2337,0.2337,0.2395,0.2397,0.2406,0.2632,0.2743,0.238,0.2357,0.2189,0.2299,0.2106,0.2916,0.2788,0.2821,0.2926,0.2801,0,0,0,0,0]},{"header":{"parameterUnit":"m.s-1","parameterCategory":2,"la1":30.2991,"la2":30.254,"lo1":-89.0895,"lo2":-89.0444,"dy":0.0017,"dx":0.0017,"nx":28,"ny":28,"refTime":"2024-02-09T03:00:00:Z","depth":"2","parameterNumber":3,"parameterNumberName":"V-component_of_CURRENTS"},"data":[0,0,0,0,0,0,0,0,0,0,0,0,0,0,0,0,0,0,0,0,0,0,0,0,0,0,0,0,0,0,0,0,0,0,0,0,0,0,0,0,0,0,0,0,0,0,0,0,0,0,0,0,0,0,0,0,0,0,0.0149,0.0148,0,0.0083,0.0083,0.0082,0.0036,0.0035,0.0035,0.0035,-0.0052,-0.0054,-0.0056,0,0,0,0,0,0,0,0,0,0,0,0,0,0.0183,0.0183,0.0149,0.0148,0.0147,0.0084,0.0083,0.0082,0.0036,0.0035,0.0035,0.0035,-0.0051,-0.0054,-0.0056,0,0,0,0,0,0,0,0,0,0,0,0,0,0.0147,0.0183,0.0149,0.0118,0.0114,0.0084,0.0083,0.0081,0.0036,0.0035,0.0035,0.0035,-0.005,-0.0053,-0.0056,-0.0068,0,0,-0.0066,-0.0067,0,0,0,0,0,0,0,0,0.0149,0.0146,0.0123,0.012,0.0116,0.0068,0.0063,0.0031,0.0036,0.0064,0.0035,0.0034,-0.0012,-0.0019,-0.0032,-0.0072,-0.0076,-0.0066,-0.0068,-0.0069,-0.007,0,0,0,0,0,0,0,0.0152,0.0148,0.0121,0.0122,0.0118,0.009,0.0085,0.0056,0.0027,0.0062,0.0059,0.0053,-0.0015,-0.0028,-0.0034,-0.0077,-0.0066,-0.0069,-0.0071,-0.0072,-0.0134,-0.0134,0,0,0,0,0,0,0.0166,0.0151,0.0124,0.012,0.0133,0.009,0.0084,0.0083,0.0028,0.002,0.0054,0.0052,-0.0023,-0.003,-0.0037,-0.0043,-0.0069,-0.0072,-0.0074,-0.0134,-0.0134,-0.0134,0,0,0,0,0,0,0.0167,0.0164,0.0126,0.0134,0.0128,0.009,0.0089,0.0082,0.0071,0.0023,0.0014,0.0051,-0.0024,-0.0033,-0.0055,-0.0047,-0.0074,-0.0076,-0.0134,-0.0134,-0.0134,-0.0062,0,0,0,0,0,0,0.0168,0.0165,0.0169,0.0136,0.0128,0.0116,0.0089,0.0081,0.0069,0.0065,0.0017,0.0008,-0.0025,-0.005,-0.0058,-0.0052,-0.0079,-0.0135,-0.0134,-0.0134,-0.0065,-0.0059,-0.0055,0,0,0,0,0,0.017,0.0182,0.017,0.0166,0.0135,0.0117,0.0111,0.0081,0.0069,0.0069,0.0037,0.001,-0.0054,-0.0052,-0.0062,-0.0056,-0.0135,-0.0134,-0.0134,-0.0067,-0.006,-0.0055,0,0,0,0,0,0,0.0198,0.0177,0.0163,0.0168,0.0147,0.011,0.0108,0.0088,0.0062,0.0061,0.0014,0.0003,-0.0015,-0.0045,-0.0043,-0.0074,-0.01,-0.0101,-0.0045,-0.004,-0.0035,-0.0011,-0.0082,0,0,0,0,0,0.0207,0.0211,0.0182,0.0186,0.0179,0.0145,0.0134,0.0116,0.0089,0.0077,0.0044,0.0008,-0.0021,-0.0036,-0.0068,-0.0082,-0.0114,-0.0086,-0.0081,-0.0076,-0.0064,-0.0108,-0.0105,-0.0132,-0.0132,-0.0132,0,0,0.0218,0.0208,0.0209,0.0192,0.0174,0.0176,0.0138,0.013,0.0132,0.0073,0.0065,0.0025,-0.0021,-0.0038,-0.0049,-0.0061,-0.0086,-0.0076,-0.0071,-0.0062,-0.0107,-0.0104,-0.0102,-0.0132,-0.0132,-0.0132,0,0,0.0247,0.0235,0.0248,0.0238,0.022,0.0202,0.0204,0.0173,0.0159,0.0143,0.0103,0.0071,0.0027,-0.0004,-0.0025,-0.0011,-0.0058,-0.0024,0.0021,-0.0021,-0.0019,-0.0018,-0.0052,-0.0054,-0.0021,-0.0021,-0.0021,0,0.0261,0.0275,0.0249,0.026,0.0261,0.022,0.0237,0.0218,0.0183,0.0178,0.0152,0.0088,0.0044,0.0026,0.0027,0.0001,-0.0028,0.0004,-0.0014,-0.0013,-0.0013,-0.0048,-0.0052,-0.0018,-0.0018,-0.0018,-0.0019,0,0.03,0.0311,0.032,0.0324,0.0319,0.0328,0.0303,0.03,0.0275,0.0248,0.0223,0.0161,0.0125,0.01,0.0066,0.005,0.0027,-0.0002,-0.0025,-0.0006,-0.0045,-0.0049,-0.0013,-0.0014,-0.0015,-0.0016,0,0,0.0333,0.0346,0.035,0.0368,0.0357,0.0362,0.0372,0.0366,0.0378,0.0327,0.0332,0.0263,0.0225,0.0198,0.0147,0.0105,0.0074,0.0059,0.0055,0.0034,-0.0013,-0.003,-0.0038,0.0041,0.0041,0.004,-0.004,0,0.0373,0.0418,0.0407,0.045,0.0474,0.045,0.0467,0.0455,0.0428,0.0422,0.0354,0.033,0.0264,0.0247,0.0197,0.0107,0.0064,0.0099,-0.0035,-0.0039,-0.005,-0.0042,0.0003,-0.0064,-0.0045,-0.0045,-0.0046,0,0.0418,0.0444,0.0495,0.053,0.0538,0.0555,0.0578,0.0586,0.0561,0.0541,0.0501,0.044,0.038,0.0317,0.0181,0.0206,0.0108,0.0031,0.0025,-0.0017,-0.0065,-0.0083,-0.0074,-0.0054,-0.0054,-0.0053,-0.0053,0,0.047,0.0508,0.0554,0.0564,0.0592,0.0615,0.0631,0.0624,0.0648,0.0617,0.0625,0.053,0.0498,0.0364,0.0203,0.0189,0.0051,0.0007,-0.01,-0.0102,-0.0102,-0.0104,-0.0089,-0.0089,-0.0089,-0.0089,-0.0088,0,0.0521,0.0559,0.0585,0.0614,0.0683,0.0676,0.0739,0.074,0.0751,0.0795,0.0695,0.0705,0.0507,0.0402,0.024,0.0067,0.0077,-0.0085,-0.0123,-0.0076,-0.0074,-0.0098,-0.0098,-0.0092,-0.0091,-0.009,-0.009,0,0.0568,0.0582,0.0645,0.0689,0.0712,0.0761,0.083,0.0871,0.0872,0.0928,0.0925,0.0837,0.0701,0.0498,0.0279,0.0129,-0.0049,-0.0116,-0.0043,-0.0071,-0.0186,-0.0181,-0.0247,-0.0248,-0.0249,-0.025,-0.0251,0,0.0594,0.0632,0.0708,0.0754,0.0777,0.0851,0.0908,0.0936,0.0991,0.1018,0.1057,0.0943,0.089,0.0567,0.0277,-0.0003,-0.0048,-0.0153,-0.0181,-0.0171,-0.0202,-0.0195,-0.0189,-0.0155,-0.0155,-0.0155,-0.0154,0,0.0647,0.0673,0.0724,0.0828,0.0896,0.0985,0.1072,0.1139,0.1182,0.1227,0.1267,0.1222,0.0933,0.0653,0.0266,0.0084,-0.0109,-0.0162,-0.017,-0.0119,-0.0091,-0.0118,-0.0115,-0.0154,-0.0154,-0.0154,-0.0154,-0.0154,0.0686,0.0733,0.0807,0.0903,0.0992,0.1108,0.1192,0.1286,0.1391,0.1473,0.1425,0.1371,0.1059,0.057,0.0236,-0.0111,-0.01,-0.0223,-0.0221,-0.0219,-0.0191,-0.0166,-0.0238,-0.0238,-0.0239,-0.0239,-0.024,0,0.0732,0.0788,0.0878,0.0994,0.1097,0.1142,0.1293,0.1377,0.151,0.1581,0.1609,0.1314,0.1001,0.0634,0.0119,-0.0188,-0.0199,-0.028,-0.0232,-0.0229,-0.0227,-0.0199,-0.0249,-0.025,-0.0251,-0.0252,0,0,0.0756,0.0843,0.0889,0.1059,0.1148,0.1292,0.1385,0.1511,0.1599,0.1665,0.1638,0.1575,0.1124,0.0746,0.0333,0.0033,-0.0022,-0.0013,0.0034,0.0146,0.015,-0.015,-0.0098,0,0,0,0,0]}],[{"header":{"parameterUnit":"m.s-1","parameterCategory":2,"la1":30.2991,"la2":30.254,"lo1":-89.0895,"lo2":-89.0444,"dy":0.0017,"dx":0.0017,"nx":28,"ny":28,"refTime":"2024-02-09T03:00:00:Z","depth":"4","parameterNumber":2,"parameterNumberName":"U-component_of_CURRENTS"},"data":[0,0,0,0,0,0,0,0,0,0,0,0,0,0,0,0,0,0,0,0,0,0,0,0,0,0,0,0,0,0,0,0,0,0,0,0,0,0,0,0,0,0,0,0,0,0,0,0,0,0,0,0,0,0,0,0,0,0,0.1992,0.1993,0,0.2066,0.2066,0.2067,0.2127,0.2128,0.2129,0.213,0.2214,0.2215,0.2217,0,0,0,0,0,0,0,0,0,0,0,0,0,0.1894,0.1895,0.1992,0.1993,0.1994,0.2066,0.2067,0.2067,0.2127,0.2128,0.2129,0.213,0.2213,0.2215,0.2217,0,0,0,0,0,0,0,0,0,0,0,0,0,0.1947,0.1896,0.1992,0.2034,0.2039,0.2066,0.2067,0.2068,0.2127,0.2128,0.2129,0.2131,0.2213,0.2215,0.2217,0.2207,0,0,0.2224,0.2225,0,0,0,0,0,0,0,0,0.1944,0.195,0.2027,0.2031,0.2037,0.209,0.2063,0.2115,0.2127,0.2091,0.213,0.2131,0.2174,0.2179,0.2188,0.2211,0.2214,0.2224,0.2226,0.2227,0.2227,0,0,0,0,0,0,0,0.194,0.1948,0.2019,0.2028,0.2034,0.2046,0.2055,0.2073,0.2124,0.2095,0.21,0.2111,0.2177,0.2185,0.219,0.2216,0.2224,0.2226,0.2228,0.2228,0.2356,0.2358,0,0,0,0,0,0,0.1935,0.1944,0.2017,0.2022,0.1995,0.2047,0.2057,0.207,0.2124,0.2133,0.2109,0.2113,0.2181,0.2187,0.2193,0.2293,0.2227,0.2229,0.223,0.2354,0.2356,0.2359,0,0,0,0,0,0,0.1932,0.194,0.2014,0.1986,0.1997,0.2048,0.2062,0.2071,0.2123,0.2135,0.2145,0.2157,0.2182,0.219,0.225,0.2293,0.223,0.2232,0.2351,0.2355,0.2357,0.2423,0,0,0,0,0,0,0.1929,0.1939,0.1967,0.1986,0.1998,0.2057,0.2062,0.2072,0.2126,0.2133,0.2178,0.2185,0.2184,0.2247,0.2252,0.2295,0.2233,0.2349,0.2353,0.2356,0.2418,0.2428,0.2436,0,0,0,0,0,0.1925,0.195,0.1967,0.1977,0.2028,0.2059,0.2067,0.2105,0.2128,0.2155,0.2192,0.2186,0.2275,0.225,0.2256,0.23,0.2347,0.2352,0.2356,0.2414,0.2426,0.2436,0,0,0,0,0,0,0.1923,0.1959,0.1979,0.2015,0.2049,0.207,0.2107,0.2129,0.2179,0.2201,0.2209,0.2219,0.2289,0.2286,0.2258,0.2349,0.2311,0.2317,0.2353,0.2364,0.2373,0.237,0.2235,0,0,0,0,0,0.1934,0.1967,0.1996,0.2033,0.2053,0.2089,0.2115,0.2141,0.2177,0.2203,0.2234,0.227,0.2304,0.2329,0.2357,0.2402,0.2402,0.2436,0.2445,0.2452,0.2456,0.2497,0.251,0.2374,0.2374,0.2373,0,0,0.1943,0.197,0.1991,0.2036,0.2069,0.2098,0.2109,0.2162,0.2198,0.2202,0.2277,0.2308,0.2326,0.2383,0.2413,0.239,0.2492,0.2458,0.2464,0.2463,0.2503,0.2516,0.2528,0.2377,0.2376,0.2376,0,0,0.1962,0.2006,0.2035,0.2065,0.2121,0.214,0.2164,0.2211,0.2251,0.2314,0.2332,0.2389,0.244,0.246,0.2474,0.2548,0.2542,0.2568,0.2608,0.2649,0.266,0.267,0.2688,0.2699,0.2568,0.2568,0.2568,0,0.1977,0.2015,0.205,0.2081,0.2118,0.2161,0.2199,0.2234,0.2299,0.2341,0.2352,0.2455,0.2472,0.2535,0.2563,0.2568,0.2587,0.2563,0.266,0.2669,0.2678,0.2695,0.2706,0.2571,0.2571,0.2571,0.257,0,0.1999,0.2048,0.2072,0.2125,0.2166,0.2213,0.2259,0.2317,0.2373,0.2407,0.2507,0.2537,0.2597,0.2615,0.2612,0.2691,0.2682,0.2669,0.2628,0.2696,0.2709,0.2719,0.2577,0.2575,0.2574,0.2573,0,0,0.1982,0.2072,0.2084,0.2119,0.2202,0.2226,0.2307,0.238,0.2435,0.251,0.2584,0.2653,0.2687,0.2705,0.272,0.2751,0.2828,0.2744,0.2745,0.2755,0.2917,0.2745,0.2739,0.2841,0.2843,0.2845,0.2901,0,0.1997,0.2057,0.2109,0.2176,0.2211,0.2288,0.2348,0.2423,0.2498,0.2575,0.2636,0.2709,0.2715,0.2757,0.2797,0.2826,0.2859,0.2813,0.2856,0.2857,0.2689,0.2746,0.2852,0.2908,0.2911,0.2912,0.2914,0,0.1993,0.2039,0.2112,0.2204,0.2229,0.228,0.2397,0.2459,0.2573,0.2637,0.2732,0.2777,0.286,0.2842,0.2935,0.2914,0.2928,0.2934,0.2936,0.2756,0.2703,0.2828,0.2932,0.2931,0.2929,0.2928,0.2927,0,0.1939,0.2037,0.21,0.2132,0.2239,0.2304,0.2372,0.249,0.2559,0.2687,0.2755,0.2851,0.2918,0.2961,0.3,0.2983,0.3077,0.3047,0.2902,0.289,0.2999,0.2988,0.3103,0.3103,0.3103,0.3103,0.3103,0,0.1912,0.1961,0.2084,0.2111,0.219,0.2281,0.2383,0.2466,0.2596,0.2669,0.2789,0.2851,0.2957,0.3022,0.3031,0.3,0.3112,0.2913,0.2895,0.3025,0.3017,0.3006,0.2994,0.3105,0.3104,0.3104,0.3104,0,0.1834,0.1919,0.1989,0.2119,0.2167,0.2224,0.2384,0.244,0.2587,0.269,0.2739,0.2887,0.2962,0.3038,0.3102,0.3026,0.3014,0.2974,0.3115,0.3103,0.279,0.2781,0.2802,0.2797,0.2792,0.2788,0.2785,0,0.1795,0.1829,0.1977,0.2022,0.2092,0.2198,0.2263,0.242,0.2485,0.2682,0.2709,0.2848,0.2923,0.2876,0.2969,0.2971,0.294,0.2909,0.2835,0.278,0.2761,0.276,0.2757,0.2777,0.2776,0.2775,0.2773,0,0.1719,0.1795,0.1852,0.1948,0.2029,0.2102,0.2214,0.2247,0.2414,0.257,0.2607,0.264,0.272,0.2757,0.2787,0.2782,0.291,0.2859,0.2868,0.2797,0.275,0.2736,0.2739,0.2757,0.2759,0.2761,0.2762,0,0.1668,0.169,0.1781,0.1847,0.1939,0.197,0.2048,0.2112,0.2192,0.2401,0.2405,0.2548,0.2684,0.2661,0.2687,0.2673,0.2626,0.2525,0.255,0.257,0.2469,0.2373,0.2251,0,0,0,0,0,0.1602,0.1611,0.1668,0.1724,0.1806,0.1862,0.1991,0.2072,0.2235,0.2196,0.2293,0.2346,0.2379,0.2459,0.2397,0.26,0.2648,0.2517,0.2548,0.2666,0.2685,0.2588,0,0,0,0,0,0,0.1555,0.1606,0.1622,0.1604,0.1619,0.1691,0.1766,0.188,0.1873,0.2045,0.2076,0.2202,0.2276,0.2384,0.235,0.2374,0.2345,0.2612,0.2606,0.2655,0.2673,0.2688,0.2594,0,0,0,0,0]},{"header":{"parameterUnit":"m.s-1","parameterCategory":2,"la1":30.2991,"la2":30.254,"lo1":-89.0895,"lo2":-89.0444,"dy":0.0017,"dx":0.0017,"nx":28,"ny":28,"refTime":"2024-02-09T03:00:00:Z","depth":"4","parameterNumber":3,"parameterNumberName":"V-component_of_CURRENTS"},"data":[0,0,0,0,0,0,0,0,0,0,0,0,0,0,0,0,0,0,0,0,0,0,0,0,0,0,0,0,0,0,0,0,0,0,0,0,0,0,0,0,0,0,0,0,0,0,0,0,0,0,0,0,0,0,0,0,0,0,0.0122,0.0122,0,0.0078,0.0078,0.0077,0.0046,0.0046,0.0046,0.0046,-0.0017,-0.0019,-0.0021,0,0,0,0,0,0,0,0,0,0,0,0,0,0.0143,0.0143,0.0122,0.0122,0.0121,0.0078,0.0078,0.0077,0.0046,0.0046,0.0046,0.0046,-0.0017,-0.0019,-0.0021,0,0,0,0,0,0,0,0,0,0,0,0,0,0.0119,0.0143,0.0122,0.0102,0.01,0.0078,0.0078,0.0077,0.0046,0.0046,0.0046,0.0046,-0.0016,-0.0019,-0.0021,-0.0031,0,0,-0.0028,-0.0029,0,0,0,0,0,0,0,0,0.012,0.0118,0.0105,0.0103,0.0101,0.0068,0.0061,0.004,0.0046,0.0065,0.0046,0.0046,0.001,0.0006,-0.0003,-0.0034,-0.0037,-0.0028,-0.003,-0.0031,-0.0031,0,0,0,0,0,0,0,0.0122,0.0119,0.0104,0.0105,0.0102,0.0082,0.0078,0.0057,0.0038,0.0064,0.0062,0.0059,0.0009,-0.0001,-0.0005,-0.0038,-0.0028,-0.003,-0.0032,-0.0033,-0.0083,-0.0083,0,0,0,0,0,0,0.0132,0.0121,0.0105,0.0103,0.0111,0.0082,0.0078,0.0078,0.0039,0.0033,0.0059,0.0057,0.0003,-0.0002,-0.0007,-0.0013,-0.0031,-0.0033,-0.0034,-0.0083,-0.0083,-0.0083,0,0,0,0,0,0,0.0132,0.0131,0.0107,0.0111,0.0107,0.0082,0.0082,0.0077,0.0071,0.0036,0.0029,0.0058,0.0003,-0.0004,-0.002,-0.0016,-0.0034,-0.0036,-0.0083,-0.0083,-0.0083,-0.0031,0,0,0,0,0,0,0.0133,0.0131,0.0136,0.0112,0.0107,0.0101,0.0082,0.0077,0.007,0.0067,0.0033,0.0026,0.0002,-0.0017,-0.0023,-0.002,-0.0038,-0.0083,-0.0083,-0.0083,-0.0033,-0.0029,-0.0026,0,0,0,0,0,0.0134,0.0143,0.0137,0.0135,0.0114,0.0101,0.0097,0.0077,0.007,0.007,0.0048,0.0028,-0.0021,-0.0018,-0.0025,-0.0023,-0.0083,-0.0083,-0.0083,-0.0034,-0.003,-0.0026,0,0,0,0,0,0,0.0154,0.0141,0.0133,0.0137,0.0123,0.0096,0.0097,0.0083,0.0065,0.0065,0.003,0.0023,0.0009,-0.0014,-0.0011,-0.0039,-0.0056,-0.0058,-0.0017,-0.0013,-0.001,0.001,-0.004,0,0,0,0,0,0.0162,0.0166,0.0146,0.015,0.0146,0.0123,0.0116,0.0103,0.0084,0.0076,0.0052,0.0025,0.0003,-0.0009,-0.0033,-0.0045,-0.0071,-0.005,-0.0047,-0.0044,-0.0033,-0.0073,-0.0072,-0.0082,-0.0082,-0.0082,0,0,0.017,0.0164,0.0166,0.0155,0.0143,0.0145,0.0118,0.0114,0.0115,0.0072,0.0068,0.0038,0.0003,-0.0012,-0.0021,-0.003,-0.0054,-0.0043,-0.004,-0.0032,-0.0072,-0.0071,-0.007,-0.0082,-0.0082,-0.0082,0,0,0.0191,0.0186,0.0196,0.0189,0.0178,0.0165,0.0167,0.0145,0.0135,0.0125,0.0095,0.007,0.0037,0.0011,-0.0006,0.0001,-0.0034,-0.0008,0.0024,-0.0014,-0.0013,-0.0013,-0.0043,-0.0046,-0.0007,-0.0007,-0.0007,0,0.0202,0.0214,0.0196,0.0204,0.0207,0.0179,0.0191,0.0178,0.0153,0.0149,0.0131,0.0082,0.0048,0.0031,0.003,0.001,-0.0014,0.0013,-0.0009,-0.0009,-0.0009,-0.0041,-0.0044,-0.0005,-0.0005,-0.0005,-0.0005,0,0.0228,0.0239,0.0246,0.0251,0.0249,0.0256,0.0239,0.0237,0.0221,0.0201,0.0181,0.0133,0.0105,0.0084,0.0059,0.004,0.0024,0.0002,-0.0016,-0.0005,-0.0039,-0.0044,-0.0001,-0.0002,-0.0003,-0.0003,0,0,0.025,0.0263,0.0267,0.0283,0.0277,0.0282,0.0289,0.0285,0.0295,0.0257,0.0261,0.0206,0.0178,0.0156,0.0116,0.0079,0.0047,0.0044,0.0041,0.0021,-0.0031,-0.0039,-0.0045,0.002,0.002,0.0019,-0.0052,0,0.0277,0.0311,0.0306,0.0341,0.0359,0.0346,0.0359,0.0352,0.0332,0.0327,0.0274,0.0257,0.0206,0.0194,0.0149,0.0075,0.0037,0.0069,-0.0043,-0.0046,-0.005,-0.005,0.0018,-0.0056,-0.0057,-0.0058,-0.0058,0,0.0305,0.0327,0.0367,0.04,0.0407,0.0423,0.0445,0.0453,0.0434,0.0419,0.0388,0.0341,0.029,0.0243,0.0125,0.0149,0.0069,0.0004,-0.0,-0.0027,-0.0063,-0.0071,-0.0067,-0.0067,-0.0066,-0.0065,-0.0065,0,0.0338,0.0372,0.041,0.042,0.0447,0.0469,0.0487,0.0482,0.0503,0.048,0.0487,0.0408,0.0382,0.0271,0.0137,0.013,0.0004,-0.0026,-0.0108,-0.011,-0.0104,-0.0103,-0.0109,-0.0109,-0.0108,-0.0108,-0.0108,0,0.0369,0.0402,0.0433,0.0456,0.0515,0.0515,0.057,0.0574,0.0586,0.0617,0.0543,0.0543,0.0387,0.0295,0.0163,0.0019,0.0021,-0.0098,-0.0129,-0.0081,-0.0077,-0.0107,-0.0106,-0.0111,-0.011,-0.011,-0.0109,0,0.0394,0.0412,0.0466,0.051,0.0534,0.0578,0.0645,0.0678,0.0683,0.0723,0.0723,0.0645,0.0523,0.036,0.0175,0.0064,-0.0083,-0.0137,-0.0061,-0.0088,-0.0179,-0.0174,-0.0234,-0.0235,-0.0236,-0.0237,-0.0237,0,0.0406,0.0437,0.0513,0.0555,0.058,0.0649,0.07,0.0731,0.0771,0.0786,0.081,0.071,0.0635,0.0385,0.0196,-0.0053,-0.0095,-0.0173,-0.0189,-0.0168,-0.0192,-0.0186,-0.0181,-0.0238,-0.0238,-0.0239,-0.0239,0,0.0433,0.0464,0.0508,0.0602,0.0665,0.0744,0.0819,0.0859,0.0896,0.0901,0.0883,0.0748,0.0612,0.0397,0.0203,0.0021,-0.0125,-0.0182,-0.0182,-0.0198,-0.0174,-0.0195,-0.0189,-0.0241,-0.0241,-0.0241,-0.0241,0,0.0456,0.0493,0.056,0.0641,0.073,0.0814,0.0852,0.0903,0.0945,0.0956,0.0947,0.0794,0.0704,0.0436,0.0258,0.0076,0.002,-0.0049,-0.0057,-0.0056,0.0007,0.0065,0.0049,0,0,0,0,0,0.0473,0.0517,0.0593,0.0684,0.0773,0.0829,0.0921,0.0949,0.0989,0.0986,0.097,0.0842,0.0581,0.0471,0.0289,0.0222,-0.0025,-0.0001,-0.0111,-0.0256,-0.0253,-0.0211,0,0,0,0,0,0,0.0483,0.0553,0.0591,0.0708,0.0775,0.0877,0.0939,0.0963,0.0968,0.0976,0.0847,0.0785,0.0534,0.0685,0.0282,0.0227,0.0128,-0.0119,-0.0124,-0.0257,-0.0255,-0.0252,-0.0208,0,0,0,0,0]}]]